WISE

Last updated on Thu Aug 01 2024 00:02:32 GMT+0000 (Coordinated Universal Time)

1 36119U 09071A 24213.61796229 .00078229 00000+0 62366-3 0 9994 2 36119 97.1388 250.9852 0001482 130.1811 229.9582 15.70926736815208

Satellite not in orbit

WISE